Weather in Novoomsky

Russia / Omsk Oblast     54°50′28″N   73°18′03″E
temp.,
°C
wind,
m/s
gust,
m/s
humid.,
%
clouds,
%
prec.,
mm/h
press.,
hPa
HPBL,
m
15 may, sat
sat1500:00+16sw33466 0.0 102433
03:00+14sw495168 0.0 1023140
06:00+14wsw495758 0.0 1023139
09:00+22w610385 0.0 1022411
12:00+27w782958 0.0 10211266
15:00+30w782551 0.0 10193466
18:00+29wnw572539 0.0 10183147
21:00+24w81340100 0.0 1018413
16 may, sun
sun1600:00+19sw45565 0.1 101780
03:00+17wsw311620 0.0 1017232
06:00+16w35691 0.0 101682
09:00+23w574542 0.3 1016482
12:00+27nw563654 0.3 10151333
15:00+29wnw683154 0.0 10152379
18:00+30wnw7122898 0.0 10133282
21:00+23n813545 0.0 1015706
17 may, mon
mon1700:00+18nnw38800 0.0 1017287
03:00+15n36905 0.0 1018203
06:00+14n23915 0.0 1019124
09:00+19wnw12605 0.0 1020415
12:00+26wsw464014 0.0 10181029
15:00+31wnw58255 0.0 10163652
18:00+30wnw69235 0.0 10143453
21:00+25w22375 0.0 101312
18 may, tue
tue1800:00+22wsw483982 0.0 1013102
03:00+20w411475 0.1 1012193
06:00+18wnw495712 0.1 1012165
09:00+22nnw59485 0.0 1012605
12:00+26nnw69355 0.0 10121723
15:00+27nw693069 0.0 10123038
18:00+26nw8103234 0.0 10113043
21:00+20n355543 0.0 101281
19 may, wed
wed1900:00+16n22807 1.0 101232
03:00+14nnw478516 0.0 1012200
06:00+13n4793100 0.0 1014325
09:00+14ne6876100 0.0 1016787
12:00+14nne676780 0.1 10181092
15:00+15nne685211 0.0 10191380
18:00+18nne783621 0.0 10192178
21:00+15nne36505 0.0 1021111